Flag for Rwanda Weather past 2 weeks in Gitarama, Rwanda

66 °F

Passing clouds.

Feels Like: 66 °F
Forecast: 62 / 79 °F
Wind: 3 mph from Northwest

Location: Kigali Airport

Current Time: Oct 13, 2015 at 9:15:53 PM

Latest Report: Oct 13, 2015 at 8:00 PM

Visibility: N/A

Pressure: 30.12 "Hg (24.20 "Hg at 1872m altitude)

Humidity: 100%

Dew point: 66 °F

Location of GitaramaLocation

Historic Weather in Gitarama — Graph


Gitarama temperature yesterday

Maximum temperature yesterday: 84 °F (at 1:30 PM)
Minimum temperature yesterday: 63 °F (at 12:00 AM)
Average temperature yesterday: 71 °F

Past Weeks' High & Low Weather Summary

High90 °F (Sep 29, 3:00 PM)100% (Sep 29, 4:00 AM)30.24 "Hg (Sep 29, 4:00 AM)
Low61 °F (Sep 29, 6:00 AM)29% (Oct 6, 4:30 PM)29.92 "Hg (Sep 30, 3:30 PM)
Average72 °F74%30.11 "Hg
* Reported Sep 28 8:00 PM — Oct 13 8:00 PM, Gitarama, Weather by CustomWeather, © 2015

Note: Actual official high and low records may vary slightly from our data, if they occured in-between our weather recording intervals... More about our weather records


Gitarama weather history for previous 24 hours

Time TempWeatherWind HumidityBarometerVisibility
8:00 PM
Tue, Oct 13
66 °FPassing clouds.No wind100%30.09 "HgN/A
7:30 PM66 °FPassing clouds.No wind100%30.09 "HgN/A
7:00 PM66 °FPassing clouds.No wind100%30.09 "HgN/A
6:30 PM68 °FPassing clouds.No wind100%30.09 "HgN/A
6:00 PM68 °FPassing clouds.No wind94%30.09 "HgN/A
5:30 PM70 °FScattered clouds.3 mph83%30.09 "HgN/A
5:00 PM70 °FPartly sunny.5 mph88%30.09 "HgN/A
4:00 PM72 °FPartly sunny.No wind83%30.09 "HgN/A
3:30 PM70 °FMild.8 mph94%30.09 "HgN/A
3:00 PM68 °FMild.7 mph100%30.09 "HgN/A
2:30 PM68 °FLight rain. Cloudy.7 mph100%30.12 "HgN/A
2:00 PM66 °FThunderstorms. Cloudy.13 mph100%30.12 "HgN/A
1:30 PM68 °FThunderstorms. Cloudy.8 mph100%30.15 "HgN/A
12:30 PM79 °FPartly sunny.7 mph65%30.12 "HgN/A
12:00 PM79 °FPartly sunny.5 mph58%30.15 "HgN/A
11:30 AM77 °FPartly sunny.7 mph69%30.15 "HgN/A
11:00 AM81 °FPartly sunny.3 mph62%30.15 "HgN/A
10:30 AM77 °FPartly sunny.7 mph69%30.18 "HgN/A
10:00 AM77 °FPartly sunny.7 mph74%30.21 "HgN/A
9:30 AM75 °FScattered clouds.7 mph78%30.21 "HgN/A
8:30 AM72 °FScattered clouds.5 mph88%30.21 "Hg4 mi
7:30 AM68 °FFog.No wind100%30.18 "Hg3 mi
7:00 AM66 °FPassing clouds.3 mph100%30.18 "Hg4 mi
6:30 AM64 °FPassing clouds.No wind100%30.15 "Hg4 mi
5:30 AM64 °FPassing clouds.No wind100%30.12 "Hg5 mi
5:00 AM64 °FPassing clouds.No wind100%30.12 "Hg5 mi
4:30 AM64 °FPassing clouds.No wind100%30.12 "HgN/A
4:00 AM64 °FPassing clouds.No wind100%30.09 "HgN/A
3:30 AM64 °FPassing clouds.No wind100%30.09 "HgN/A
3:00 AM64 °FPassing clouds.No wind100%30.09 "HgN/A
2:30 AM64 °FPassing clouds.No wind100%30.09 "HgN/A
2:00 AM64 °FPassing clouds.No wind100%30.09 "HgN/A
1:30 AM64 °FPassing clouds.No wind100%30.12 "HgN/A
1:00 AM64 °FPassing clouds.5 mph100%30.12 "HgN/A
12:30 AM66 °FPassing clouds.5 mph100%30.15 "HgN/A
12:00 AM66 °FPassing clouds.No wind100%30.15 "HgN/A
11:30 PM
Mon, Oct 12
66 °FMild.3 mph100%N/AN/A
11:00 PM66 °FPassing clouds.3 mph100%30.18 "HgN/A
10:30 PM68 °FPassing clouds.3 mph94%30.18 "HgN/A
10:00 PM66 °FPassing clouds.3 mph100%30.18 "HgN/A
9:30 PM68 °FPassing clouds.5 mph100%30.18 "HgN/A
Weather by CustomWeather, © 2015

See weather overviewHow to use our weather pages